Weather Roundup
Issued by NWS

Home | Current Version | Previous Version | Text Only | Print | Product List | Glossary On
Versions: 1 2 3 4 5 6 7 8 9 10 11 12 13 14 15 16 17 18 19 20 21 22 23 24 25 26 27 28 29 30 31 32 33 34 35 36 37 38 39 40 41 42 43 44 45 46 47 48 49 50
000
NZUS93 KARX 302310
HRRWXR

CURRENT HOURLY OBSERVATIONS ACROSS
MUCH OF THE UPPER MISSISSIPPI VALLEY
NATIONAL WEATHER SERVICE LA CROSSE WI
600 PM CDT SAT MAY 30 2015


...SOUTHEAST MINNESOTA...


CITY           SKY/WX    TMP DP  RH WIND       PRES   REMARKS
ROCHESTER      CLOUDY    57  45  64 N13       30.22S
ROCHESTER/MAYO CLOUDY    58  44  59 N9G18     30.21F
WINONA         PTSUNNY   61  48  63 N6        30.19S
AUSTIN         PTSUNNY   55  46  71 N8        30.20S
ALBERT LEA     PTSUNNY   61  45  55 NE15      30.21S
DODGE CENTER   PTSUNNY   57  46  67 NE12G18   30.21F
PRESTON        CLOUDY    56  48  73 NE10G17   30.19S
OWATONNA       MOSUNNY   63  45  51 NE12G18   30.21S
FARIBAULT      MOSUNNY   63  45  51 NE13      30.22S
$$

...ELSEWHERE IN MINNESOTA...


CITY           SKY/WX    TMP DP  RH WIND       PRES   REMARKS
MINNEAPOLIS    MOSUNNY   63  41  44 NE12G26   30.22F
INTNL FALLS    SUNNY     53  29  39 NE8       30.32F
DULUTH         SUNNY     52  30  43 SE13      30.29S
RED WING       SUNNY     63  41  45 NE7       30.21F
REDWOOD FALLS  SUNNY     64  35  34 NE8       30.22F
MANKATO        SUNNY     63  41  45 NE16      30.21S
WORTHINGTON    SUNNY     61  39  44 NE17      30.22F
FAIRMONT       SUNNY     63  39  42 NE13      30.21S
$$

...SOUTHWEST WISCONSIN...


CITY           SKY/WX    TMP DP  RH WIND       PRES   REMARKS
LA CROSSE      CLOUDY    64  51  62 N7        30.16S
PRAIRIE DU CHI CLOUDY    58  49  71 NE12      30.15S
BOSCOBEL       PTSUNNY   59  48  67 NE9G20    30.16S
LONE ROCK      CLOUDY    57  48  72 NE8       30.17S
PLATTEVILLE    CLOUDY    55  49  79 NE18G24   30.14S
FORT MC COY    PTSUNNY   59  50  70 CALM      30.18S
CAMP DOUGLAS   PTSUNNY   59  54  82 NE6       30.17S
VIROQUA        CLOUDY    58  51  76 NE10      30.17S
WIS DELLS      CLOUDY    55  47  76 NE8G16    30.17S
$$

...ELSEWHERE IN WISCONSIN...


CITY           SKY/WX    TMP DP  RH WIND       PRES   REMARKS
MILWAUKEE      CLOUDY    47  40  76 N23G31    30.14F
MADISON        CLOUDY    54  45  71 NE16      30.16S
GREEN BAY      CLOUDY    54  45  71 NE17      30.20S
EAU CLAIRE     SUNNY     61  39  44 N12G18    30.21S
BLACK RVR FLS  MOCLDY    64  43  47 NE12      30.18S
MEDFORD        SUNNY     55  38  51 N12G18    30.22S
WAUSAU         MOSUNNY   59  38  45 N9G23     30.19S
WIS RAPIDS     MOSUNNY   60  40  47 NE15      30.19F
MARSHFIELD     MOSUNNY   58  40  51 NE12      30.19S
RICE LAKE      SUNNY     59  35  40 N14G21    30.26S
$$

...NORTHEAST IOWA...


CITY           SKY/WX    TMP DP  RH WIND       PRES   REMARKS
DECORAH        PTSUNNY   59  52  77 N10       30.15S
MASON CITY     CLOUDY    59  50  72 N17       30.20S
CHARLES CITY   CLOUDY    59  54  82 N14       30.18S
OELWEIN        PTSUNNY   57  55  94 NE16      30.15S FOG
$$

...ELSEWHERE IN IOWA...


CITY           SKY/WX    TMP DP  RH WIND       PRES   REMARKS
DES MOINES     CLOUDY    62  52  69 N14       30.13S
IOWA CITY      CLOUDY    59  52  77 NE14G29   30.10R
FORT DODGE     PTSUNNY   63  48  59 NE12      30.18S
$$

...NORTHERN ILLINOIS...


CITY           SKY/WX    TMP DP  RH WIND       PRES   REMARKS
CHICAGO-OHARE  LGT RAIN  47  45  93 N21G38    30.07S
CHICAGO-MIDWAY LGT RAIN  49  46  90 N22G30    30.06F FOG
MOLINE         LGT RAIN  55  51  86 NE14      30.07S FOG
ROCKFORD       CLOUDY    52  45  77 NE21G30   30.13R
PEORIA         CLOUDY    60  56  86 NE18G24   29.99R
$$

NOTE: "FAIR" INDICATES FEW OR NO CLOUDS BELOW 12,000 FEET WITH NO
SIGNIFICANT WEATHER AND/OR OBSTRUCTIONS TO VISIBILITY. WIND
SPEEDS ARE IN MILES-PER-HOUR.



USA.gov is the U.S. government's official web portal to all federal, state and local government web resources and services.